Погода в Мачакосе

Кения     1°31′09″S   37°16′08″E
темп.,
°C
ветер,
м/с
пор.,
м/с
влажн.,
%
обл.,
%
осадки,
мм/ч
давл.,
гПа
погр.,
м
26 сентября, вс
вс2600:00+15вюв248295 0.0 1018254
03:00+15в2281100 0.0 1016506
06:00+14в1288100 0.3 1018218
09:00+16ююв017597 0.3 1019301
12:00+23вюв224892 0.1 10161586
15:00+24юв334119 0.2 10121632
18:00+23вюв464452 0.0 1012582
21:00+20вюв394949 0.0 1015806
27 сентября, пн
пн2700:00+16вюв237823 0.0 1017359
03:00+13вюв119538 0.0 101640
06:00+12зсз119513 0.0 101811
09:00+20вюв22495 0.0 1018795
12:00+26юв223351 0.0 10152037
15:00+24юв3336100 0.0 10111941
18:00+23в353976 0.0 1011225
21:00+20в374778 0.0 1015518
28 сентября, вт
вт2800:00+15вюв22695 0.0 101639
03:00+13юз117426 0.0 101510
06:00+13ююз117639 0.0 101610
09:00+22юв12445 0.0 1016757
12:00+27юв32305 0.0 10132302
15:00+26вюв333099 0.0 10092407
18:00+24вюв58388 0.0 1010712
21:00+19вюв395566 0.0 1014322
29 сентября, ср
ср2900:00+16вюв227698 0.0 101540
03:00+14всв11918 0.0 101411
06:00+13ююв1196100 0.0 101710
09:00+21ю1254100 0.0 1017689
12:00+28юв333320 0.0 10132411
15:00+28юв542763 0.0 10083242
18:00+25юв473331 0.0 1010870
21:00+20юв410535 0.0 1013505
30 сентября, чт
чт3000:00+16в128324 0.0 101546
03:00+15св119538 0.0 101427
06:00+15юв128881 0.0 1016264
09:00+20юв126246 0.0 1018880
12:00+26юв32385 0.0 10141869
15:00+29ююв542971 0.0 10093017
18:00+25юв473271 0.0 1010590
21:00+18вюв4107426 0.1 1015767